Simultaneous Nadir Overpasses (SNOs) Predictions

Prediction of SNOs between METOP-A and NOAA-19 Satellite Orbit:

Table of predicted SNOs for the next 14.0 days since TLE Epoch: 9/8/2017
Index Date (METOP-A) Time (METOP-A) Lat,Lon (METOP-A) SZA (METOP-A ) Date (NOAA-19) Time (NOAA-19) Lat,Lon (NOAA-19) SZA (NOAA-19 ) Distance(km) Time Diff (sec)
1 09/13/2017 16:58:49 77.64, -68.98 74.13 09/13/2017 16:57:35 77.64, -69.09 74.12 2.69 74
2 09/13/2017 17:49:31 -77.62, 98.26 105.88 09/13/2017 17:48:39 -77.60, 98.32 105.90 2.24 52
3 09/13/2017 18:40:11 77.62, -94.41 74.14 09/13/2017 18:39:36 77.62, -94.50 74.13 2.01 35
4 09/13/2017 19:30:53 -77.60, 72.83 105.88 09/13/2017 19:30:40 -77.58, 72.91 105.89 2.65 13
5 09/13/2017 20:21:33 77.60,-119.84 74.14 09/13/2017 20:21:37 77.60,-119.90 74.14 1.37 4
6 09/13/2017 21:12:15 -77.58, 47.40 105.87 09/13/2017 21:12:41 -77.57, 47.51 105.88 3.14 26
7 09/13/2017 22:02:55 77.58,-145.28 74.15 09/13/2017 22:03:38 77.58,-145.31 74.15 0.76 43
8 09/13/2017 22:53:37 -77.56, 21.96 105.87 09/13/2017 22:54:43 -77.59, 21.90 105.84 3.19 66
9 09/13/2017 23:44:25 77.22,-172.23 73.77 09/13/2017 23:45:31 77.24,-169.13 73.89 76.28 66




NCC Satellite Simultaneous Nadir Overpasses (SNOs) Prediction Service
